Location: Bern�tre
(50.1974°N, 2.0915°E)
Time: 06:11:51
(UTC+00:00)

Okean 1 Rocket - Pass Details

Date: 18 September 2020
Orbit: 605 x 635 km, 82.5° (Epoch: 27 October)

Event Time Altitude Azimuth Distance (km) Brightness Sun altitude
Exits shadow 19:51:19 39° 124° (ESE) 962 3.5 -18.3°
Maximum altitude 19:52:10 44° 93° (E) 890 3.4 -18.5°
Drops below altitude 10° 19:56:27 10° 22° (NNE) 2,035 5.8 -19.1°
Sets 19:58:46 0° 16° (NNE) 2,948 6.7 -19.4°
